Weather History for Hurlburt Field, FL

Change the Weather History Date:

Saturday, March 15, 2014

  Actual Average Record
Temperature  
Mean Temperature 58 °F -  
Max Temperature 63 °F 67 °F 81 °F (2012)
Min Temperature 51 °F 50 °F 36 °F (2006)
Degree Days  
Heating Degree Days 8    
Growing Degree Days 8 (Base 50)    
Moisture  
Dew Point 52 °F    
Average Humidity 76    
Maximum Humidity 88    
Minimum Humidity 68    
Precipitation  
Precipitation 0.00 in - - ()
Sea Level Pressure  
Sea Level Pressure 30.06 in    
Wind  
Wind Speed 5 mph (East)    
Max Wind Speed 12 mph    
Max Gust Speed 20 mph    
Visibility 10 miles    
Events Rain    
Averages and records for this station are not official NWS values.
T = Trace of Precipitation, MM = Missing Value Source: NWS Daily Summary

Daily Weather History Graph

Daily Weather History Graph

Search for Another Location

Airport:

Trip Planner

Search our weather history database for the weather conditions in past years. The results will help you decide how hot, cold, wet, or windy it might be!

Date:

Astronomy

Mar. 15, 2014 Rise Set
Actual Time 6:56 AM CDT 6:55 PM CDT
Civil Twilight 6:32 AM CDT 7:19 PM CDT
Nautical Twilight 6:04 AM CDT 7:46 PM CDT
Astronomical Twilight 5:36 AM CDT 8:14 PM CDT
Moon 6:14 PM CDT (3/15) 6:05 AM CDT (3/15)
Length of Visible Light 12h 46m
Length of Day
11h 58m
Waxing Gibbous, 99% of the Moon is Illuminated
Mar 15
Waxing Gibbous
Mar 16
Full
Mar 23
Last Quarter
Mar 30
New
Apr 7
First Quarter

Hourly Weather History & Observations

Time (CDT) Temp. Dew Point Humidity Pressure Visibility Wind Dir Wind Speed Gust Speed Precip Events Conditions
12:19 AM 59.0 °F 50.0 °F 72% 30.14 in 10.0 mi North 2.3 mph - N/A   Clear
12:43 AM 59.0 °F 50.0 °F 72% 30.14 in 10.0 mi NNW 2.3 mph - N/A   Light Drizzle
12:58 AM 58.5 °F 49.8 °F 73% 30.13 in 10.0 mi North 3.5 mph - 0.00 in   Light Drizzle
1:13 AM 55.4 °F 46.4 °F 72% 30.13 in 10.0 mi North 2.3 mph - N/A   Mostly Cloudy
1:58 AM 52.0 °F 46.0 °F 80% 30.13 in 10.0 mi North 2.3 mph - 0.00 in   Overcast
2:10 AM 51.8 °F 46.4 °F 82% 30.12 in 10.0 mi North 1.2 mph - N/A   Light Drizzle
2:20 AM 51.8 °F 46.4 °F 82% 30.13 in 10.0 mi NNW 2.3 mph - N/A   Overcast
2:28 AM 51.8 °F 46.4 °F 82% 30.13 in 10.0 mi NNW 2.3 mph - N/A   Light Drizzle
2:58 AM 53.6 °F 48.2 °F 82% 30.12 in 10.0 mi North 2.3 mph - 0.00 in   Light Drizzle
3:33 AM 53.6 °F 48.2 °F 82% 30.11 in 10.0 mi North 2.3 mph - N/A   Light Drizzle
3:48 AM 53.6 °F 48.2 °F 82% 30.11 in 10.0 mi Variable 1.2 mph - N/A   Light Drizzle
3:51 AM 53.6 °F 48.2 °F 82% 30.11 in 10.0 mi NW 3.5 mph - N/A   Mostly Cloudy
3:55 AM 53.6 °F 48.2 °F 82% 30.11 in 10.0 mi North 2.3 mph - N/A   Light Drizzle
3:58 AM 53.4 °F 47.5 °F 80% 30.12 in 10.0 mi NNE 2.3 mph - 0.00 in   Light Drizzle
4:58 AM 53.8 °F 47.8 °F 80% 30.10 in 10.0 mi NNE 2.3 mph - 0.00 in   Light Drizzle
5:32 AM 51.8 °F 46.4 °F 82% 30.09 in 10.0 mi North 2.3 mph - N/A   Clear
5:58 AM 53.1 °F 47.7 °F 82% 30.10 in 10.0 mi NE 2.3 mph - 0.00 in   Light Drizzle
6:29 AM 51.8 °F 46.4 °F 82% 30.10 in 10.0 mi North 2.3 mph - N/A   Clear
6:58 AM 51.4 °F 46.9 °F 85% 30.11 in 10.0 mi North 2.3 mph - 0.00 in   Scattered Clouds
7:18 AM 51.8 °F 48.2 °F 88% 30.11 in 10.0 mi North 4.6 mph - N/A   Light Drizzle
7:58 AM 53.8 °F 49.3 °F 85% 30.13 in 10.0 mi Variable 1.2 mph - 0.00 in   Light Drizzle
8:58 AM 57.0 °F 50.7 °F 79% 30.13 in 10.0 mi East 4.6 mph - 0.00 in   Light Drizzle
9:58 AM 60.1 °F 50.5 °F 71% 30.13 in 10.0 mi East 6.9 mph - 0.00 in   Light Drizzle
10:58 AM 63.0 °F 53.1 °F 70% 30.13 in 10.0 mi ESE 8.1 mph - 0.00 in   Light Drizzle
11:30 AM 62.6 °F 51.8 °F 68% 30.12 in 10.0 mi ESE 11.5 mph - N/A   Mostly Cloudy
11:34 AM 62.6 °F 51.8 °F 68% 30.12 in 10.0 mi ESE 10.4 mph - N/A   Light Drizzle
11:58 AM 62.1 °F 51.8 °F 69% 30.12 in 10.0 mi ESE 6.9 mph - 0.00 in   Light Drizzle
12:09 PM 62.6 °F 51.8 °F 68% 30.12 in 10.0 mi East 5.8 mph - N/A   Overcast
12:11 PM 62.6 °F 51.8 °F 68% 30.12 in 10.0 mi ESE 10.4 mph - N/A   Light Drizzle
12:22 PM 62.6 °F 51.8 °F 68% 30.11 in 10.0 mi Variable 4.6 mph - N/A   Overcast
12:25 PM 62.6 °F 51.8 °F 68% 30.11 in 10.0 mi East 5.8 mph - N/A   Light Drizzle
12:39 PM 60.8 °F 53.6 °F 77% 30.11 in 10.0 mi ESE 4.6 mph - N/A   Overcast
12:42 PM 62.6 °F 53.6 °F 72% 30.11 in 10.0 mi ESE 8.1 mph - N/A Rain Light Rain
12:44 PM 62.6 °F 53.6 °F 72% 30.11 in 10.0 mi East 6.9 mph - N/A   Overcast
12:48 PM 62.6 °F 53.6 °F 72% 30.10 in 10.0 mi East 5.8 mph - N/A   Light Drizzle
12:58 PM 62.2 °F 53.4 °F 73% 30.11 in 10.0 mi East 8.1 mph - 0.00 in   Light Drizzle
1:49 PM 62.6 °F 55.4 °F 77% 30.07 in 10.0 mi ESE 11.5 mph - N/A   Overcast
1:59 PM 63.3 °F 54.9 °F 74% 30.08 in 10.0 mi ESE 9.2 mph - 0.00 in   Overcast
2:41 PM 62.6 °F 55.4 °F 77% 30.04 in 10.0 mi ESE 9.2 mph - N/A   Overcast
2:44 PM 62.6 °F 55.4 °F 77% 30.04 in 10.0 mi SE 6.9 mph - N/A   Overcast
2:53 PM 62.6 °F 55.4 °F 77% 30.04 in 10.0 mi ESE 9.2 mph - N/A   Overcast
2:59 PM 63.0 °F 55.0 °F 75% 30.05 in 10.0 mi ESE 6.9 mph - 0.00 in   Overcast
3:03 PM 62.6 °F 55.4 °F 77% 30.03 in 10.0 mi SE 8.1 mph - N/A   Overcast
3:20 PM 62.6 °F 55.4 °F 77% 30.02 in 10.0 mi ESE 8.1 mph - N/A   Mostly Cloudy
3:43 PM 62.6 °F 55.4 °F 77% 30.02 in 10.0 mi ESE 6.9 mph - N/A   Overcast
4:04 PM 62.6 °F 55.4 °F 77% 30.01 in 10.0 mi ESE 8.1 mph - N/A   Overcast
4:18 PM 62.6 °F 55.4 °F 77% 30.01 in 10.0 mi SE 8.1 mph - N/A   Overcast
4:55 PM 64.4 °F 55.4 °F 73% 30.00 in 10.0 mi ESE 9.2 mph - N/A   Overcast
4:58 PM 63.5 °F 55.6 °F 75% 30.01 in 10.0 mi ESE 8.1 mph - N/A   Overcast
5:25 PM 64.4 °F 55.4 °F 73% 29.99 in 10.0 mi ESE 10.4 mph - N/A   Light Drizzle
5:58 PM 63.3 °F 55.2 °F 75% 30.00 in 10.0 mi ESE 8.1 mph - 0.00 in   Light Drizzle
6:58 PM 63.1 °F 54.5 °F 73% 30.00 in 10.0 mi East 6.9 mph - 0.00 in   Light Drizzle
7:22 PM 62.6 °F 53.6 °F 72% 29.99 in 10.0 mi East 5.8 mph - N/A   Mostly Cloudy
7:25 PM 62.6 °F 53.6 °F 72% 29.99 in 10.0 mi East 8.1 mph - N/A   Light Drizzle
7:52 PM 62.6 °F 53.6 °F 72% 29.98 in 10.0 mi East 9.2 mph - N/A   Overcast
7:55 PM 62.6 °F 53.6 °F 72% 29.98 in 10.0 mi ESE 6.9 mph - N/A   Light Drizzle
7:56 PM 62.6 °F 53.6 °F 72% 29.98 in 10.0 mi ESE 6.9 mph - N/A   Overcast
7:58 PM 62.6 °F 53.6 °F 72% 29.99 in 10.0 mi ESE 9.2 mph - 0.00 in   Overcast
8:10 PM 62.6 °F 55.4 °F 77% 29.98 in 10.0 mi ESE 8.1 mph - N/A   Light Drizzle
8:58 PM 62.8 °F 55.2 °F 76% 29.98 in 10.0 mi SE 10.4 mph - 0.00 in   Light Drizzle
9:58 PM 62.8 °F 56.3 °F 79% 29.98 in 10.0 mi ESE 10.4 mph - 0.00 in   Light Drizzle
10:57 PM 62.6 °F 57.2 °F 82% 29.96 in 10.0 mi SE 10.4 mph - N/A   Overcast
10:58 PM 62.8 °F 56.7 °F 80% 29.97 in 10.0 mi SE 9.2 mph - 0.00 in   Overcast
10:59 PM 62.6 °F 57.2 °F 82% 29.96 in 10.0 mi SE 9.2 mph - N/A   Light Drizzle
11:01 PM 62.6 °F 57.2 °F 82% 29.96 in 10.0 mi SE 10.4 mph - N/A   Overcast
11:06 PM 62.6 °F 57.2 °F 82% 29.96 in 10.0 mi SE 11.5 mph - N/A   Light Drizzle
11:58 PM 62.8 °F 57.0 °F 81% 29.94 in 10.0 mi SE 9.2 mph 19.6 mph 0.00 in   Light Drizzle